Find Starlink 30375

NORAD ID: 57732 Int'l Des: 2023-131 Owner: SPXS Country: US Constellation: starlink operational
LEOCIRCULAR

实时位置

正在加载3D地球...

关于 Starlink 30375

正在加载描述...

即将过境

Passes for default location (London). Set your location on the main map for personalized predictions.

高度历史

Loading altitude history...

两行轨道根数

1 57732U 23131A 26133.04805368 -.00000094 00000-0 61044-5 0 9997
2 57732 43.0039 154.1385 0001477 274.9441 85.1242 15.27569833149940
Epoch: May 13, 2026 • Age: 10 hours

当前状态

高度 482.5 km
速度 7.63 km/s
星下点 9.94°N, 79.59°W
发射日期 Sep 1, 2023
运行时间 2.6 years
类型 internet

技术详情

分类 Payload
质量 730.00 kg
干质量 700.00 kg
总质量 730.00 kg
长度 0.30 m
直径 4.10 m
跨度 29.00 m
形状 Box + pan
制造商 SPXS
平台类型 Starlink V2M
阶段状态 In Orbit
所有者/国家 SPXS/US

Most Searched